Weather History for Thermopolis, WY

Change the Weather History Date:

Thursday, February 14, 2013

  Actual Average (KWRL) Record (KWRL)
Temperature  
Mean Temperature 18 °F 23 °F  
Max Temperature 23 °F 37 °F 58 °F (1981)
Min Temperature 14 °F 10 °F -11 °F (2001)
Degree Days  
Heating Degree Days 46 42  
Month to date heating degree days 617  
Since 1 July heating degree days 5465  
Cooling Degree Days 0 0  
Month to date cooling degree days 0  
Year to date cooling degree days 0  
Moisture  
Dew Point 15 °F    
Average Humidity 93    
Maximum Humidity 100    
Minimum Humidity 86    
Precipitation  
Precipitation 0.00 in 0.01 in 0.50 in (1967)
Month to date precipitation 0.09  
Year to date precipitation 0.32  
Sea Level Pressure  
Sea Level Pressure 30.18 in    
Wind  
Wind Speed 19 mph (NNW)    
Max Wind Speed 41 mph    
Max Gust Speed 47 mph    
Visibility 2 miles    
Events Fog , Snow    
T = Trace of Precipitation, MM = Missing Value Source: NWS Daily Summary

Daily Weather History Graph

Daily Weather History Graph

Search for Another Location

Airport:

Trip Planner

Search our weather history database for the weather conditions in past years. The results will help you decide how hot, cold, wet, or windy it might be!

Date:

Astronomy

Feb. 14, 2013 Rise Set
Actual Time 7:12 AM MST 5:42 PM MST
Civil Twilight 6:42 AM MST 6:12 PM MST
Nautical Twilight 6:09 AM MST 6:45 PM MST
Astronomical Twilight 5:36 AM MST 7:18 PM MST
Moon 9:05 AM MST (2/14) 10:59 PM MST (2/14)
Length of Visible Light 11h 29m
Length of Day
10h 30m
Waxing Crescent, 22% of the Moon is Illuminated
Feb 14
Waxing Crescent
Feb 17
First Quarter
Feb 25
Full
Mar 4
Last Quarter
Mar 11
New

Hourly Weather History & Observations

Time (MST) Temp. Windchill Dew Point Humidity Pressure Visibility Wind Dir Wind Speed Gust Speed Precip Events Conditions
12:15 AM 23.0 °F 9.6 °F 23.0 °F 100% 30.06 in 10.0 mi North 16.1 mph - N/A   Overcast
12:35 AM 23.0 °F 9.6 °F 23.0 °F 100% 30.06 in 10.0 mi North 16.1 mph - N/A   Overcast
12:55 AM 23.0 °F 10.1 °F 23.0 °F 100% 30.06 in 4.0 mi North 15.0 mph - N/A   Overcast
1:15 AM 23.0 °F 9.6 °F 23.0 °F 100% 30.07 in 0.5 mi North 16.1 mph - N/A Fog Light Freezing Fog
1:35 AM 23.0 °F 9.2 °F 23.0 °F 100% 30.07 in 0.2 mi North 17.3 mph - N/A Snow Snow
1:55 AM 23.0 °F 8.7 °F 23.0 °F 100% 30.06 in 0.2 mi North 18.4 mph - N/A Snow Heavy Snow
2:15 AM 23.0 °F 8.7 °F 21.2 °F 93% 30.07 in 0.2 mi North 18.4 mph - N/A Snow Snow
2:55 AM 23.0 °F 9.2 °F 21.2 °F 93% 30.07 in 0.2 mi North 17.3 mph - N/A Snow Heavy Snow
3:15 AM 23.0 °F 9.6 °F 21.2 °F 93% 30.07 in 0.2 mi North 16.1 mph - N/A Snow Heavy Snow
3:35 AM 23.0 °F 9.2 °F 21.2 °F 93% 30.08 in 0.2 mi North 17.3 mph - N/A Snow Heavy Snow
3:55 AM 23.0 °F 10.1 °F 21.2 °F 93% 30.08 in - North 15.0 mph - N/A   Overcast
4:15 AM 23.0 °F 10.1 °F 21.2 °F 93% 30.08 in 0.2 mi North 15.0 mph - N/A Snow Heavy Snow
4:35 AM 23.0 °F 10.1 °F 21.2 °F 93% 30.08 in 0.2 mi NNW 15.0 mph - N/A Snow Heavy Snow
4:55 AM 23.0 °F 9.2 °F 21.2 °F 93% 30.10 in - NNW 17.3 mph - N/A   Overcast
5:15 AM 19.4 °F -1.1 °F 15.8 °F 86% 30.09 in - NNW 36.8 mph 42.6 mph N/A   Overcast
5:35 AM 17.6 °F -2.8 °F 15.8 °F 93% 30.12 in 0.2 mi NW 33.4 mph - N/A Snow Snow
5:55 AM 17.6 °F -3.6 °F 14.0 °F 86% 30.12 in 0.2 mi NW 36.8 mph - N/A Snow Snow
6:15 AM 15.8 °F - 14.0 °F 93% 30.12 in 0.2 mi North - - N/A Snow Heavy Snow
6:35 AM 15.8 °F - 14.0 °F 93% 30.11 in 0.2 mi North - - N/A Snow Heavy Snow
6:55 AM 15.8 °F -6.6 °F 14.0 °F 93% 30.12 in - WNW 39.1 mph - N/A   Overcast
7:15 AM 14.0 °F -9.1 °F 12.2 °F 93% 30.12 in 0.2 mi WNW 39.1 mph - N/A Snow Snow
7:35 AM 14.0 °F -9.6 °F 12.2 °F 93% 30.13 in - NW 41.4 mph 47.2 mph N/A   Overcast
7:55 AM 14.0 °F -9.3 °F 12.2 °F 93% 30.16 in - NW 40.3 mph - N/A   Overcast
8:15 AM 14.0 °F -8.3 °F 12.2 °F 93% 30.17 in - NW 35.7 mph - N/A   Overcast
8:35 AM 14.0 °F -7.4 °F 12.2 °F 93% 30.19 in - WNW 32.2 mph - N/A   Unknown
8:55 AM 14.0 °F -8.3 °F 12.2 °F 93% 30.20 in - WNW 35.7 mph - N/A   Unknown
9:15 AM 14.0 °F -8.0 °F 12.2 °F 93% 30.20 in - WNW 34.5 mph - N/A   Unknown
9:35 AM 14.0 °F -8.3 °F 12.2 °F 93% 30.20 in - WNW 35.7 mph - N/A   Unknown
9:55 AM 14.0 °F -8.0 °F 12.2 °F 93% 30.21 in - NW 34.5 mph - N/A   Unknown
10:15 AM 14.0 °F -7.7 °F 12.2 °F 93% 30.22 in - NW 33.4 mph - N/A   Unknown
10:35 AM 14.0 °F -7.7 °F 12.2 °F 93% 30.22 in - NW 33.4 mph - N/A   Overcast
10:55 AM 14.0 °F -6.8 °F 12.2 °F 93% 30.23 in - NW 29.9 mph - N/A   Unknown
11:15 AM 14.0 °F -6.8 °F 12.2 °F 93% 30.23 in - NW 29.9 mph - N/A   Unknown
11:35 AM 14.0 °F -5.5 °F 12.2 °F 93% 30.23 in - NW 25.3 mph - N/A   Overcast
11:55 AM 14.0 °F -4.7 °F 12.2 °F 93% 30.23 in - NW 23.0 mph - N/A   Overcast
12:15 PM 14.0 °F -3.9 °F 12.2 °F 93% 30.24 in - NW 20.7 mph - N/A   Overcast
12:35 PM - - - N/A% 30.25 in - NW 17.3 mph - N/A   Overcast
1:15 PM 14.0 °F -2.0 °F 12.2 °F 93% 30.24 in - NNW 16.1 mph - N/A   Overcast
1:35 PM 14.0 °F -1.4 °F 12.2 °F 93% 30.24 in - NNW 15.0 mph - N/A   Unknown
1:55 PM 14.0 °F -0.8 °F 12.2 °F 93% 30.23 in - NNW 13.8 mph - N/A   Unknown
2:15 PM 14.0 °F 2.0 °F 12.2 °F 93% 30.23 in - NNW 9.2 mph - N/A   Unknown
2:35 PM 15.8 °F 0.3 °F 14.0 °F 93% 30.23 in - NNW 16.1 mph - N/A   Unknown
2:55 PM 14.0 °F -1.4 °F 12.2 °F 93% 30.23 in - NW 15.0 mph - N/A   Unknown
3:15 PM 14.0 °F 1.2 °F 12.2 °F 93% 30.24 in - NNW 10.4 mph - N/A   Unknown
3:35 PM 14.0 °F 2.9 °F 12.2 °F 93% 30.23 in - North 8.1 mph - N/A   Overcast
4:15 PM - - - N/A% 30.23 in - NNE 6.9 mph - N/A   Overcast
4:35 PM - - - N/A% 30.24 in - North 4.6 mph - N/A   Unknown
4:55 PM - - - N/A% 30.24 in - NNE 3.5 mph - N/A   Unknown
5:15 PM - - - N/A% 30.24 in - NNE 3.5 mph - N/A   Unknown
5:35 PM - - - N/A% 30.23 in - East 5.8 mph - N/A   Mostly Cloudy
5:55 PM - - - N/A% 30.23 in - East 8.1 mph - N/A   Overcast
6:15 PM 15.8 °F 5.1 °F 14.0 °F 93% 30.24 in - ESE 8.1 mph - N/A   Overcast
6:35 PM 17.6 °F 5.7 °F 14.0 °F 86% 30.23 in - SE 10.4 mph - N/A   Overcast
6:55 PM 17.6 °F 5.0 °F 14.0 °F 86% 30.23 in - SE 11.5 mph - N/A   Overcast
7:15 PM 17.6 °F 7.3 °F 14.0 °F 86% 30.24 in - SE 8.1 mph - N/A   Overcast
7:35 PM 17.6 °F 6.4 °F 14.0 °F 86% 30.23 in - SE 9.2 mph - N/A   Overcast
7:55 PM 15.8 °F 4.2 °F 14.0 °F 93% 30.23 in - SE 9.2 mph - N/A   Overcast
8:15 PM 14.0 °F -0.8 °F 12.2 °F 93% 30.21 in - SE 13.8 mph - N/A   Overcast
8:35 PM 14.0 °F -1.4 °F 12.2 °F 93% 30.21 in - SE 15.0 mph - N/A   Overcast
8:55 PM 14.0 °F -2.0 °F 12.2 °F 93% 30.20 in - SE 16.1 mph - N/A   Overcast
9:15 PM 14.0 °F -1.4 °F 12.2 °F 93% 30.20 in - SE 15.0 mph - N/A   Overcast
9:35 PM 14.0 °F -0.8 °F 12.2 °F 93% 30.20 in - SE 13.8 mph - N/A   Unknown
9:55 PM 14.0 °F 1.2 °F 12.2 °F 93% 30.21 in - SE 10.4 mph - N/A   Unknown
10:15 PM 14.0 °F 3.9 °F 12.2 °F 93% 30.22 in - SE 6.9 mph - N/A   Unknown
10:35 PM 14.0 °F 2.9 °F 12.2 °F 93% 30.21 in - SE 8.1 mph - N/A   Overcast
10:55 PM 14.0 °F 3.9 °F 12.2 °F 93% 30.22 in - SE 6.9 mph - N/A   Unknown
11:15 PM 14.0 °F 5.1 °F 12.2 °F 93% 30.22 in - SE 5.8 mph - N/A   Overcast
11:35 PM 14.0 °F 3.9 °F 12.2 °F 93% 30.22 in - SE 6.9 mph - N/A   Overcast
11:55 PM 14.0 °F 3.9 °F 12.2 °F 93% 30.22 in - SE 6.9 mph - N/A   Overcast